Location: Baix
(44.7118°N, 4.7648°E)
Time: 07:19:50
(UTC+00:00)

Vanguard 1 - Pass Details

Date: 05 December 2020
Orbit: 648 x 3834 km, 34.3° (Epoch: 21 January)

Event Time Altitude Azimuth Distance (km) Brightness Sun altitude
Rises 06:01:36 0° 258° (WSW) 3,425 - -10.5°
Exits shadow 06:02:49 - 254° (WSW) 3,025 12.1 -10.3°
Reaches altitude 10° 06:03:51 10° 249° (WSW) 2,705 11.9 -10.2°
Maximum altitude 06:09:45 37° 183° (S) 1,965 11.8 -9.2°
Drops below altitude 10° 06:19:37 10° 123° (ESE) 4,543 15.1 -7.6°
Sets 06:24:40 0° 116° (ESE) 6,107 16.9 -6.8°
